GW5299 Weather Reports


time (UTC)temp
F
wind
direction
speed
knots
gust
knots
rain 1hr
in
rain 24hr
in
rain mn
in
humidity
%
barometer
mb
20260507060011 49 355 0.9 2.6 0.00 0.00 0.00 87 655.0
20260507055004 48 348 0.0 0.9 0.00 0.00 0.00 90 654.9
20260507054058 48 348 0.9 0.9 0.00 0.00 0.00 91 654.8
20260507053050 48 350 0.0 0.9 0.00 0.00 0.00 91 654.5
20260507052044 47 350 0.0 0.0 0.00 0.00 0.00 91 654.4
20260507051036 47 350 0.0 0.0 0.00 0.00 0.00 91 654.2
20260507050029 47 350 0.0 0.0 0.00 0.00 0.00 91 654.1
20260507045012 47 350 0.0 0.0 0.00 0.00 0.00 91 654.3
20260507044004 47 350 0.0 0.0 0.00 0.00 0.00 91 654.2
20260507043055 47 350 0.0 0.0 0.00 0.00 0.00 91 654.3
20260507042048 47 350 0.0 0.0 0.00 0.00 0.00 91 654.3
20260507041042 47 350 0.0 0.0 0.00 0.00 0.00 91 654.3
20260507040035 47 350 0.0 0.0 0.00 0.00 0.00 90 654.3
20260507035027 47 350 0.0 0.0 0.00 0.00 0.00 90 654.4
20260507034011 48 350 0.0 0.0 0.00 0.00 0.00 90 654.4
20260507033004 48 350 0.0 0.0 0.00 0.00 0.00 90 654.4
20260507032057 48 350 0.0 0.0 0.00 0.00 0.00 90 654.4
20260507031051 48 350 0.0 0.0 0.00 0.00 0.00 89 654.6
20260507030043 48 350 0.0 0.0 0.00 0.00 0.00 89 654.5
20260507025035 48 350 0.0 0.0 0.00 0.00 0.00 89 654.5
20260507024028 48 350 0.0 0.0 0.00 0.00 0.00 89 654.6
20260507023009 48 350 0.0 0.0 0.00 0.00 0.00 89 654.6
20260507022002 48 350 0.0 0.0 0.00 0.00 0.00 88 654.6
20260507021055 48 350 0.0 0.0 0.00 0.00 0.00 88 654.5
20260507020048 48 350 0.0 0.0 0.00 0.00 0.00 88 654.5
20260507015041 48 350 0.0 0.0 0.00 0.00 0.00 88 654.6
20260507014020 48 350 0.0 0.0 0.00 0.00 0.00 88 654.5
20260507013007 48 350 0.0 0.0 0.00 0.00 0.00 87 654.7
20260507012101 48 350 0.0 0.0 0.00 0.00 0.00 87 654.8
20260507011054 48 350 0.0 0.0 0.00 0.00 0.00 87 654.8
20260507010046 48 350 0.0 0.0 0.00 0.00 0.00 87 654.9
20260507005039 48 350 0.0 0.0 0.00 0.00 0.00 86 655.0
20260507004032 48 350 0.0 0.0 0.00 0.00 0.00 86 654.9
20260507003025 49 350 0.0 0.0 0.00 0.00 0.00 86 655.0
20260507002010 48 350 0.0 0.0 0.00 0.00 0.00 85 655.0
20260507001003 48 350 0.0 0.0 0.00 0.00 0.00 85 654.9
20260507000057 48 350 0.0 0.0 0.00 0.00 0.00 84 654.9
20260506235050 48 350 0.0 0.0 0.00 0.00 0.00 83 654.8
20260506234042 48 350 0.0 0.0 0.00 0.00 0.00 81 654.9
20260506233035 48 350 0.0 0.9 0.00 0.00 0.00 81 654.9
20260506232027 48 350 0.0 0.9 0.00 0.00 0.00 82 654.9
20260506231012 48 350 0.0 0.0 0.00 0.00 0.00 82 654.9
20260506230005 48 350 0.0 0.9 0.00 0.00 0.00 81 654.9
20260506225059 49 352 0.0 0.0 0.00 0.00 0.00 80 655.0
20260506224051 49 350 0.0 0.9 0.00 0.00 0.00 78 655.1
20260506223044 49 349 0.9 0.9 0.00 0.00 0.00 77 655.1
20260506222037 49 337 0.0 0.9 0.00 0.00 0.00 77 655.1
20260506221030 49 347 0.9 0.9 0.00 0.00 0.00 76 655.3
20260506220022 49 351 0.0 0.9 0.00 0.00 0.00 76 655.3
20260506215007 49 354 0.9 1.7 0.00 0.00 0.13 75 655.3
20260506214101 49 353 1.7 1.7 0.00 0.00 0.13 75 655.4
20260506213054 49 345 0.9 1.7 0.00 0.00 0.13 75 655.5
20260506212047 49 341 0.9 0.9 0.00 0.00 0.13 76 655.5
20260506211040 49 349 0.0 1.7 0.00 0.00 0.13 76 655.5
20260506210033 49 1 0.9 1.7 0.00 0.00 0.13 76 655.5
20260506205025 49 17 0.0 1.7 0.00 0.00 0.13 76 655.5
20260506204011 49 13 0.9 1.7 0.00 0.00 0.13 78 655.5
20260506203005 50 16 0.0 1.7 0.00 0.00 0.13 78 655.6
20260506202058 50 9 0.0 0.9 0.00 0.00 0.13 78 655.6
20260506201052 50 9 0.0 0.9 0.00 0.00 0.13 78 655.7
20260506200045 50 8 0.0 1.7 0.00 0.00 0.13 77 655.7
20260506195038 50 5 0.9 2.6 0.00 0.00 0.13 77 655.7
20260506194030 50 5 2.6 2.6 0.00 0.00 0.13 76 655.7
20260506193020 50 15 2.6 2.6 0.00 0.00 0.13 76 655.8
20260506192006 50 26 0.9 6.1 0.00 0.00 0.13 75 655.9
20260506191059 50 24 3.5 7.0 0.00 0.00 0.13 73 656.1
20260506190052 51 10 1.7 6.1 0.00 0.00 0.13 72 656.2
20260506185045 51 26 3.5 6.1 0.00 0.00 0.13 70 656.3
20260506184037 51 23 3.5 3.5 0.00 0.00 0.13 69 656.5
20260506183030 51 5 3.5 6.1 0.00 0.00 0.13 69 656.7
20260506182012 52 22 3.5 6.1 0.00 0.00 0.13 66 657.0
20260506181004 52 34 3.5 6.1 0.00 0.00 0.13 66 657.1
20260506180058 52 30 3.5 5.2 0.00 0.00 0.13 65 657.2
20260506175051 53 19 1.7 7.8 0.00 0.00 0.13 65 657.4
20260506174044 53 29 3.5 5.2 0.00 0.00 0.13 65 657.6
20260506173036 54 16 2.6 8.7 0.00 0.00 0.13 64 658.1
20260506172029 55 347 4.3 9.6 0.00 0.00 0.13 62 658.5
20260506171018 54 5 5.2 8.7 0.00 0.00 0.13 59 658.4
20260506170008 54 3 2.6 8.7 0.00 0.00 0.13 59 658.5
20260506165100 54 23 1.7 6.1 0.00 0.00 0.13 59 658.3
20260506164053 55 0 3.5 11.3 0.00 0.00 0.13 59 658.5
20260506163046 55 30 3.5 7.8 0.00 0.00 0.13 60 658.6
20260506162039 55 15 4.3 7.8 0.00 0.00 0.13 60 658.6
20260506161032 55 10 1.7 7.8 0.00 0.00 0.13 61 1009.5
20260506160025 56 11 6.1 7.8 0.00 0.00 0.13 60 1009.6
20260506155011 56 2 2.6 7.0 0.00 0.00 0.13 62 1009.6
20260506154004 57 355 3.5 8.7 0.00 0.00 0.13 60 1009.5
20260506153058 57 353 4.3 8.7 0.00 0.00 0.13 59 1009.4
20260506152050 57 1 3.5 5.2 0.00 0.00 0.13 61 1009.4
20260506151044 57 8 2.6 7.8 0.00 0.00 0.13 59 1009.4
20260506150036 58 3 2.6 7.8 0.00 0.00 0.13 57 1009.3
20260506145029 57 13 1.7 6.1 0.00 0.00 0.13 59 1009.2
20260506144021 57 9 0.9 5.2 0.00 0.00 0.13 57 1009.3
20260506143009 58 5 3.5 8.7 0.00 0.00 0.13 56 1009.3
20260506142103 58 3 2.6 5.2 0.00 0.00 0.13 58 1009.3
20260506141054 58 342 2.6 8.7 0.00 0.00 0.13 57 1009.3
20260506140047 58 26 1.7 6.1 0.00 0.00 0.13 58 1009.3
20260506135040 58 31 1.7 5.2 0.00 0.00 0.13 58 1009.3
20260506134033 58 0 3.5 7.0 0.00 0.00 0.13 59 1009.2
20260506133026 58 356 3.5 6.1 0.00 0.00 0.13 59 1009.3
20260506132010 57 24 2.6 7.0 0.00 0.00 0.13 60 1009.2
20260506131003 57 1 3.5 7.0 0.00 0.00 0.13 61 1009.1
20260506130056 58 4 4.3 7.0 0.00 0.00 0.13 59 1009.1
20260506125049 57 8 1.7 5.2 0.00 0.00 0.13 63 1009.1
20260506124042 56 352 0.9 6.1 0.00 0.00 0.13 63 1009.1
20260506123034 56 13 1.7 6.1 0.00 0.00 0.13 64 1009.1
20260506122027 56 3 4.3 7.8 0.00 0.00 0.13 65 1009.2
20260506121011 56 21 3.5 5.2 0.00 0.00 0.13 65 1009.0
20260506120004 55 349 3.5 6.1 0.00 0.00 0.13 67 1009.0
20260506115058 55 38 1.7 5.2 0.00 0.00 0.13 70 1008.9
20260506114051 55 27 1.7 6.1 0.00 0.00 0.13 69 1008.9
20260506113044 56 10 2.6 5.2 0.00 0.00 0.13 68 1008.9
20260506112037 56 343 2.6 7.0 0.00 0.00 0.13 68 1008.9
20260506111012 58 346 4.3 7.8 0.00 0.00 0.13 68 1008.9
20260506110005 56 337 2.6 6.1 0.00 0.00 0.13 69 1008.9
20260506105059 55 351 3.5 7.0 0.00 0.00 0.13 74 1009.0
20260506104051 54 329 1.7 7.8 0.00 0.00 0.13 74 1009.1
20260506103044 54 339 0.9 6.1 0.00 0.00 0.13 77 1009.1
20260506102038 54 337 3.5 5.2 0.00 0.00 0.13 77 1009.0
20260506101031 54 324 2.6 5.2 0.00 0.00 0.13 96 1009.0
20260506100007 53 345 3.5 6.1 0.00 0.00 0.13 96 1009.0
20260506095100 53 352 4.3 6.1 0.00 0.00 0.13 96 1008.8
20260506094053 52 331 3.5 3.5 0.00 0.00 0.13 97 1008.8
20260506093046 52 338 3.5 3.5 0.00 0.00 0.13 96 1008.8
20260506092039 52 343 1.7 6.1 0.00 0.00 0.13 97 1008.7
20260506091032 51 328 1.7 3.5 0.00 0.00 0.13 97 1008.7
20260506090025 51 336 0.0 2.6 0.00 0.00 0.13 97 1008.6
20260506085015 51 335 1.7 6.1 0.00 0.00 0.13 97 1008.6
20260506084005 51 341 1.7 2.6 0.00 0.00 0.13 97 1008.6
20260506083059 50 332 0.0 5.2 0.00 0.00 0.13 97 1008.5
20260506082052 50 334 0.0 6.1 0.00 0.00 0.13 97 1008.4
20260506081045 50 339 0.9 5.2 0.00 0.00 0.13 97 1008.4
20260506073003 48 347 3.5 7.8 0.00 0.00 0.13 97 1008.2
20260506072056 48 358 5.2 7.8 0.00 0.00 0.13 97 1008.2
20260506071049 48 348 3.5 3.5 0.00 0.00 0.13 97 1008.1
20260506062054 47 345 0.9 6.1 0.00 0.00 0.13 97 1007.9
20260506061047 47 3 1.7 5.2 0.00 0.00 0.13 97 1007.9